This is the latest recevied weather packets stored in our database for station/object WZ9ZZZ-1. If no packets are shown the sender has not sent any weather packets the latest 10 day(s).
| Time | Temp. | Humidity | Pressure | Rain* | Wind** | Luminosity | Snow |
|---|---|---|---|---|---|---|---|
| 1778032204 | 25.56° C | 90% | 1012.2 hPa | 0 mm | - | 0 W/m² | - |
| 1778031902 | 25.56° C | 89% | 1012.1 hPa | 0 mm | - | 0 W/m² | - |
| 1778031597 | 25.56° C | 89% | 1011.9 hPa | 0 mm | - | 0 W/m² | - |
| 1778031295 | 25.56° C | 89% | 1011.9 hPa | 0 mm | - | 0 W/m² | - |
| 1778030992 | 25.56° C | 89% | 1011.9 hPa | 0 mm | - | 0 W/m² | - |
| 1778030688 | 25.56° C | 88% | 1011.7 hPa | 0 mm | - | 0 W/m² | - |
| 1778030385 | 25.56° C | 88% | 1011.6 hPa | 0 mm | - | 0 W/m² | - |
| 1778030082 | 25.56° C | 88% | 1011.7 hPa | 0 mm | - | 0 W/m² | - |
| 1778029779 | 25.56° C | 88% | 1011.7 hPa | 0 mm | - | 0 W/m² | - |
| 1778029478 | 25.56° C | 88% | 1011.5 hPa | 0 mm | - | 0 W/m² | - |
| 1778029174 | 25.56° C | 88% | 1011.4 hPa | 0 mm | - | 0 W/m² | - |
| 1778028872 | 25.56° C | 88% | 1011.6 hPa | 0 mm | - | 0 W/m² | - |
| 1778028567 | 25.56° C | 87% | 1011.4 hPa | 0 mm | - | 1 W/m² | - |
| 1778028265 | 25.56° C | 87% | 1011.4 hPa | 0 mm | - | 3 W/m² | - |
| 1778027961 | 25.56° C | 87% | 1011.2 hPa | 0 mm | - | 5 W/m² | - |
| 1778027658 | 26.11° C | 87% | 1011.3 hPa | 0 mm | - | 5 W/m² | - |
| 1778027354 | 26.11° C | 87% | 1011.1 hPa | 0 mm | - | 6 W/m² | - |
| 1778027050 | 26.11° C | 86% | 1011.3 hPa | 0 mm | - | 10 W/m² | - |
| 1778026745 | 26.11° C | 86% | 1011.1 hPa | 0 mm | - | 10 W/m² | - |
| 1778026443 | 26.11° C | 86% | 1011.3 hPa | 0 mm | - | 16 W/m² | - |
| 1778026140 | 26.11° C | 86% | 1011.2 hPa | 0 mm | - | 18 W/m² | - |
| 1778025838 | 26.11° C | 86% | 1011.4 hPa | 0 mm | - | 22 W/m² | - |
| 1778025534 | 26.11° C | 85% | 1011.2 hPa | 0 mm | - | 32 W/m² | - |
| 1778025232 | 26.11° C | 85% | 1011.5 hPa | 0 mm | - | 36 W/m² | - |
| 1778024928 | 26.11° C | 85% | 1011.1 hPa | 0 mm | - | 34 W/m² | - |
* Rain latest hour (hover to see other rain measurements)
** Current wind speed in m/s (hover to see current wind gust speed)